Barrow, AK

12:18 AM AKST on February 18, 2018 (GMT -0900)
Wiley Post-Will Rogers Memorial

Weather History for PABR - May, 2014

Change the Weather History Date:

Thursday, May 29, 2014

  Actual Average Record
Temperature  
Mean Temperature 24 °F 28 °F  
Max Temperature 27 °F 32 °F 46 °F (1996)
Min Temperature 20 °F 24 °F 4 °F (1926)
Degree Days  
Heating Degree Days 41 37  
Month to date heating degree days 1112 1288  
Since 1 July heating degree days 16767 18448  
Cooling Degree Days 0 0  
Month to date cooling degree days 0 0  
Year to date cooling degree days 0 0  
Moisture  
Dew Point 16 °F    
Average Humidity 0    
Maximum Humidity 0    
Minimum Humidity 0    
Precipitation  
Precipitation T in 0.00 in 0.29 in (1962)
Month to date precipitation 0.83 0.16  
Year to date precipitation 1.55 0.68  
Snow  
Snow 0.10 in 0.10 in 2.90 in (1962)
Month to date snowfall 3.9 2.6  
Since 1 July snowfall 52.1 36.9  
Snow Depth T in    
Sea Level Pressure  
Sea Level Pressure 30.08 in    
Wind  
Wind Speed 21 mph (NE)    
Max Wind Speed 25 mph    
Max Gust Speed 32 mph    
Visibility 9 miles    
Events Snow    
T = Trace of Precipitation, MM = Missing Value Source: NWS Daily Summary

Daily Weather History Graph

Daily Weather History Graph

Search for Another Location

Airport or City:

Trip Planner

Search our weather history database for the weather conditions in past years. The results will help you decide how hot, cold, wet, or windy it might be!

Date:

Astronomy

Dec. 31, 1969 Rise Set
Actual Time Sun does not rise Sun does not rise
Civil Twilight Sun does not rise Sun does not rise
Nautical Twilight Sun does not rise Sun does not rise
Astronomical Twilight Sun does not rise Sun does not rise
Moon No Moon Rise No Moon Set
Length of Visible Light 24h 00m
Length of Day
24h 00m
New Moon, 1% of the Moon is Illuminated
May 29
New Moon
Jun 5
First Quarter
Jun 12
Full
Jun 19
Last Quarter
Jun 27
New

Hourly Weather History & Observations

Time (AKDT) Temp. Windchill Dew Point Humidity Pressure Visibility Wind Dir Wind Speed Gust Speed Precip Events Conditions
12:53 AM 21.0 °F 5.0 °F 15.1 °F 78% 30.08 in 10.0 mi ENE 21.9 mph - 0.00 in Snow Light Snow
1:53 AM 21.0 °F 6.2 °F 15.1 °F 78% 30.08 in 9.0 mi NE 18.4 mph - 0.00 in Snow Light Snow
2:53 AM 19.9 °F 4.8 °F 15.1 °F 81% 30.08 in 4.0 mi NE 18.4 mph - 0.00 in Snow Light Snow
3:53 AM 19.9 °F 4.8 °F 15.1 °F 81% 30.07 in 8.0 mi NE 18.4 mph - 0.00 in Snow Light Snow
4:53 AM 19.9 °F 4.8 °F 14.0 °F 78% 30.08 in 9.0 mi NE 18.4 mph - 0.00 in Snow Light Snow
5:53 AM 19.9 °F 4.3 °F 15.1 °F 81% 30.08 in 5.0 mi NE 19.6 mph - 0.00 in Snow Light Snow
6:53 AM 21.0 °F 5.7 °F 15.1 °F 78% 30.08 in 6.0 mi ENE 19.6 mph - 0.00 in Snow Light Snow
7:53 AM 21.0 °F 5.0 °F 14.0 °F 74% 30.08 in 9.0 mi ENE 21.9 mph - 0.00 in Snow Light Snow
8:53 AM 21.9 °F 6.5 °F 15.1 °F 75% 30.08 in 9.0 mi ENE 20.7 mph - 0.00 in Snow Light Snow
9:53 AM 21.9 °F 6.9 °F 15.1 °F 75% 30.09 in 9.0 mi ENE 19.6 mph - 0.00 in Snow Light Snow
10:53 AM 23.0 °F 7.6 °F 16.0 °F 74% 30.09 in 9.0 mi ENE 21.9 mph - 0.00 in Snow Light Snow
11:53 AM 24.1 °F 9.4 °F 16.0 °F 71% 30.09 in 9.0 mi ENE 20.7 mph - 0.00 in   Overcast
12:53 PM 25.0 °F 9.5 °F 16.0 °F 69% 30.09 in 10.0 mi NE 24.2 mph - N/A   Mostly Cloudy
1:53 PM 27.0 °F 12.5 °F 18.0 °F 69% 30.09 in 10.0 mi ENE 23.0 mph - N/A   Mostly Cloudy
2:53 PM 26.1 °F 11.0 °F 17.1 °F 69% 30.09 in 10.0 mi ENE 24.2 mph - N/A   Mostly Cloudy
3:53 PM 27.0 °F 13.2 °F 18.0 °F 69% 30.09 in 10.0 mi NE 20.7 mph - N/A   Mostly Cloudy
4:53 PM 27.0 °F 12.8 °F 19.0 °F 72% 30.08 in 10.0 mi NE 21.9 mph - N/A   Overcast
5:53 PM 26.1 °F 12.0 °F 18.0 °F 71% 30.08 in 10.0 mi ENE 20.7 mph - N/A   Overcast
6:53 PM 25.0 °F 10.2 °F 18.0 °F 75% 30.06 in 10.0 mi ENE 21.9 mph - N/A   Overcast
7:53 PM 26.1 °F 12.0 °F 18.0 °F 71% 30.06 in 10.0 mi NE 20.7 mph - N/A   Overcast
8:53 PM 24.1 °F 9.0 °F 18.0 °F 77% 30.06 in 10.0 mi ENE 21.9 mph - N/A   Overcast
9:53 PM 24.1 °F 9.4 °F 18.0 °F 77% 30.06 in 10.0 mi ENE 20.7 mph - N/A   Overcast
10:53 PM 24.1 °F 8.7 °F 18.0 °F 77% 30.05 in 10.0 mi ENE 23.0 mph 28.8 mph N/A   Overcast
11:53 PM 23.0 °F 7.2 °F 18.0 °F 81% 30.04 in 10.0 mi ENE 23.0 mph 28.8 mph N/A   Overcast